www.pogodaiklimat.ru
Время
(UTC), дата
20:51 30.12
21:13 30.12
21:42 30.12
21:51 30.12
22:12 30.12
22:40 30.12
22:51 30.12
23:49 30.12
23:51 30.12
00:51 30.12
01:51 30.12
02:22 30.12
02:51 30.12
03:34 30.12
03:51 30.12
03:58 30.12
04:51 31.12
05:07 31.12
05:51 31.12
06:05 31.12
06:51 31.12
07:51 31.12
08:51 31.12
09:51 31.12
10:28 31.12
10:38 31.12
10:51 31.12
11:05 31.12
11:36 31.12
11:51 31.12
12:03 31.12
12:51 31.12
13:18 31.12
13:30 31.12
13:51 31.12
14:51 31.12
15:15 31.12
15:40 31.12
15:51 31.12
16:51 31.12
17:23 31.12
17:51 31.12
17:55 31.12
18:51 31.12
19:51 31.12
20:39 31.12
20:51 31.12
21:51 31.12
Ветер
(напр.,м/с)
Видим. Явления Облачность Т
(С)
Тd
(С)
f
(%)
Тe
(С)
Тes
(С)
Комфортность P
(гПа)
Po
(гПа)
Тmin
(С)
Tmax
(С)
R
(мм)
R24
(мм)
S
(см)
0 5 км дымка 10/10 150 м +1.1 -0.6 88 -0 -0 1012.6 1001.7
В 1 3 км дымка 10/10 150 м +1.1 -0.6 88 -2 -2 1001.3
0 4 км дымка 10/10 330 м +1.7 0.0 88 +1 +1 1001.3
СЗ 1 6 км дымка 10/8 540 м
[средняя]
+1.7 -0.6 85 -1 -1 1012.3 1001.3
ЮЗ 3 14 км слабая морось 10/10 240 м +1.7 -0.6 85 -3 -3 1001.3
0 16 км слабая морось 10/10 360 м +1.7 -0.6 85 +1 +1 1001.3
ЮЗ 1 16 км слабая морось 10/10 360 м +1.7 -0.6 85 -1 -1 1012.3 1001.3 +1.1 +3.9
СЗ 2 16 км 10/10 360 м +2.0 -1.0 80 -2 -2 1001.3
С 2 16 км 10/10 360 м +1.7 -0.6 85 -2 -2 1012.2 1001.3
С 2 16 км слабая морось 10/10 840 м +1.7 -0.6 85 -2 -2 1011.8 1001.0
0 14 км слабый снег с моросью 10/10 720 м +1.1 -0.6 88 -0 -0 1011.7 1001.0
0 13 км слабый снег с моросью 10/10 870 м +1.1 -0.6 88 -0 -0 1000.7
0 11 км слабый снег с моросью 10/10 300 м +1.1 -0.6 88 -0 -0 1011.0 1000.3
С 1 8 км слабая морось, дымка 10/10 300 м +1.1 -0.6 88 -2 -2 999.7
С 1 6 км слабая морось, дымка 10/10 300 м +1.1 -0.6 88 -2 -2 1010.0 999.3
0 6 км слабый снег с моросью, дымка 10/10 270 м +1.1 -0.6 88 -0 -0 999.3
С 1 8 км слабая морось, дымка 10/10 90 м +1.1 -0.6 88 -2 -2 1008.5 998.0 +1.1 +1.7
СЗ 2 8 км слабая морось, дымка 10/10 210 м +1.1 -0.6 88 -3 -3 997.7
С 2 16 км 10/10 90 м +1.1 -0.6 88 -3 -3 1008.2 997.7
СЗ 2 16 км 10/10 90 м +1.1 -0.6 88 -3 -3 997.7
СЗ 1 16 км 10/10 90 м +1.1 -0.6 88 -2 -2 1008.3 997.7
С 2 16 км 10/10 690 м +1.1 -0.6 88 -3 -3 1007.3 996.6
С 2 16 км 10/10 1050 м +1.1 -1.1 85 -3 -3 1007.0 996.3
0 16 км 10/10 720 м +1.1 -0.6 88 -0 -0 1007.1 996.3
0 16 км 10/10 780 м +1.1 -0.6 88 -0 -0 996.3
0 16 км 10/10 720 м +1.1 -0.6 88 -0 -0 996.3
0 16 км слабая морось 10/10 660 м +1.1 -0.6 88 -0 -0 1007.0 996.3 +1.1 +1.7 13.5
0 3 км слабый снег, дымка 10/10 630 м +1.1 -0.6 88 -0 -0 996.0
0 3 км слабый снег, дымка 10/10 630 м +1.1 -1.1 85 0 0 996.3
0 2 км слабый снег, дымка 10/10 120 м +1.1 -0.6 88 -0 -0 1006.8 996.0
0 2 км слабый снег, дымка 10/10 90 м +1.1 -0.6 88 -0 -0 996.0
0 3 км слабый снег, дымка 10/10 0 м +1.1 -0.6 88 -0 -0 1006.3 995.6
В 1 3 км слабый снег, дымка 10/10 0 м +1.7 -0.6 85 -1 -1 995.3
СВ 3 3 км слабый снег, дымка 10/10 120 м +1.7 -0.6 85 -3 -3 995.0
0 3 км слабый снег, дымка 10/10 90 м +1.7 0.0 88 +1 +1 1006.1 995.3
В 1 3 км слабый снег, дымка 10/10 0 м +2.2 0.0 85 -0 -0 1004.8 994.0
0 5 км слабый снег с дождем 10/10 120 м +2.2 -0.6 82 +1 +1 993.6
0 6 км слабый снег с моросью 10/10 210 м +2.8 0.0 82 +2 +2 993.0
0 6 км слабый снег с моросью 10/10 210 м +2.8 0.0 82 +2 +2 1003.4 993.0
0 10 км слабая морось, дымка 10/10 0 м +2.8 0.0 82 +2 +2 1002.3 991.6 +1.1 +2.8
В 2 10 км слабая морось, дымка 10/10 0 м +2.8 +0.6 85 -1 -1 990.9
0 14 км 10/10 0 м +2.8 +1.1 89 +2 +2 1001.6 990.9
0 14 км 10/10 0 м +3.3 +0.6 82 +2 +2 990.9
Ю 3 14 км 10/10 270 м +3.3 +0.6 82 -1 -1 1001.2 990.6
Ю 4 16 км 10/10 270 м +3.3 +0.6 82 -2 -2 1001.7 991.3
Ю 3 16 км слабая морось 10/10 210 м +3.3 +0.6 82 -1 -1 990.9
Ю 2 16 км слабая морось 10/10 210 м +3.3 +0.6 82 -0 -0 1001.4 990.9
Ю 3 16 км слабая морось 10/10 210 м +2.8 +0.6 85 -1 -1 1001.6 990.9
Местоположение метеостанции Albany International Airport: широта 42.7481 долгота -73.8017 высота над уровнем моря 87 м.
В архиве по умолчанию представлена погода в Олбани за последние 1-2 суток. Обновление информации о фактической погоде в базе происходит ежечасно! Архивные данные за месяц целиком и за предыдущие месяцы Вы можете получить, выбрав интересующий диапазон дат из раскрывающегося списка и нажав кнопку "Ввод!".
Внимание! Архив погоды МЕТАР в базе сайта по станциям, не включенным в климатический монитор, хранится не более 60 дней. Нет смысла пытаться выбрать более раннюю дату.
*Определитесь, кто Вы:
Внимание! Время в таблицах - всемирное. Для получения местного времени необходимо прибавить поправку, которая равна ч.
Смотрите также архив погоды в соседних городах и на ближайших метеорологических станциях:
Партнеры нашего сайта:      
Пояснения к столбцам:
  • Ветер - указаны скорость ветра в м/с - средняя за 10 мин, порывы в срок и между сроками (в фигурных скобках) и направление, откуда дует ветер: С - северный,
  • СВ - северо-восточный, В - восточный, ЮВ - юго-восточный, Ю - южный, ЮЗ - юго-западный, З - западный, СЗ - северо-западный.
  • Видимость - горизонтальная дальность видимости в метрах или километрах. При видимости от 1 до 10 км при отсутствии осадков обычно наблюдается дымка, при ухудшении видимости до 1 км и менее - туман. В сухую погоду видимость может ухудшаться дымом, пылью или мглою.
  • Явления - указаны атмосферные явления, наблюдавшиеся в срок или в последний час перед сроком; фигурными скобками обозначены явления, наблюдавшиеся между сроками (за 1-3 часа до срока); квадратными скобками обозначены град или гололедные отложения с указанием их диаметра в мм.
  • Облачность - указаны через наклонную черту общая и нижняя облачность в баллах и высота нижней границы облаков в метрах; квадратными скобками обозначены формы облаков: Ci - перистые, Cs - перисто-слоистые, Cc - перисто-кучевые, Ac - высококучевые, As - высокослоистые, Sc - слоисто-кучевые, Ns - слоисто-дождевые, Cu - кучевые, Cb - кучево-дождевые. Подробнее классификацию облаков см. в Атласе облаков (PDF).
  • T - Температура воздуха - температура, измеренная на высоте 2 м над землей.
  • Td - Температура точки росы - температура, при понижении до которой содержащийся в воздухе водяной пар достигнет насыщения.
  • f - Относительная влажность воздуха - влажноcть воздуха, измеренная на высоте 2 м над землей.
  • Te - Эффективная температура - температура, которую ощущает одетый по сезону человек в тени. Характеристика душности погоды. При расчете учитывается влияние влажности воздуха и скорости ветра на теплоощущения человека.
  • Tes - Эффективная температура на солнце - температура, которую ощущает человек, с поправкой на солнечный нагрев. Характеристика знойности погоды. Зависит от высоты солнца над горизонтом, облачности и скорости ветра. Ночью, в пасмурную погоду, а также при ветре 12 м/с и более поправка равна нулю.
  • P - Атмосферное давление - приведенное к уровню моря атмосферное давление.
  • Po - Атмосферное давление - измеренное на уровне метеостанции атмосферное давление.
  • Tmin - Минимальная температура - минимум температуры воздуха на высоте 2 м над землей.
  • Tmax - Максимальная температура - максимум температуры воздуха на высоте 2 м над землей.
  • R - Количество осадков - Количество выпавших осадков за период времени, мм. При наведении курсора мыши на число - период времени, за который выпало указанное количество осадков.
  • R24 - Количество осадков - Количество выпавших осадков за 24 часа, мм.
  • S - Снежный покров - Высота снежного покрова, см. При наведении курсора мыши на число - состояние снежного покрова и степень покрытия местности в баллах.